Home   Weather   Marchtrenk   Past weeks

Flag for Austria Past Weather in Marchtrenk, Upper Austria, Austria — Yesterday and Last 2 Weeks

Now
50 °F

Partly cloudy.


Feels Like: 44 °F
Forecast: 46 / 57 °F
Wind: 17 mph from West

Location: Linz / Hoersching-Flughafen

Current Time: Feb 22, 2017 at 6:50:09 pm

Latest Report: Feb 22, 2017 at 6:20 pm


Visibility: N/A

Pressure: 29.83 "Hg

Humidity: 71%

Dew Point: 41 °F

Location of MarchtrenkLocation

Past Weather in Marchtrenk — Graph

°F

Marchtrenk Temperature Yesterday

Maximum temperature yesterday: 50 °F (at 12:20 pm)
Minimum temperature yesterday: 43 °F (at 12:20 am)
Average temperature yesterday: 46 °F

High & Low Weather Summary for the Past Weeks

 TemperatureHumidityPressure
High55 °F (Feb 22, 11:50 am)100% (Feb 7, 6:50 pm)30.63 "Hg (Feb 7, 6:50 pm)
Low23 °F (Feb 15, 7:20 am)54% (Feb 16, 1:50 pm)29.83 "Hg (Feb 22, 4:50 pm)
Average36 °F83%30.26 "Hg
* Reported Feb 7 5:20 pm — Feb 22 5:20 pm, Marchtrenk, Weather by CustomWeather, © 2017

Note: Actual official high and low records may vary slightly from our data, if they occured in-between our weather recording intervals... More about our weather records

Advertising

Marchtrenk Weather History for the Previous 24 Hours

Scroll right to see more
 ConditionsComfort  
Time TempWeatherWind HumidityBarometerVisibility
5:20 pm
Wed, Feb 22
52 °FPartly sunny.20 mph67%29.83 "HgN/A
4:50 pm52 °FBroken clouds.16 mph67%29.83 "HgN/A
4:20 pm54 °FPartly sunny.21 mph63%29.86 "HgN/A
3:50 pm54 °FPartly sunny.21 mph63%29.86 "HgN/A
3:20 pm54 °FBroken clouds.24 mph58%29.86 "HgN/A
2:50 pm54 °FBroken clouds.23 mph63%29.86 "HgN/A
2:20 pm54 °FSprinkles. Broken clouds.26 mph63%29.86 "HgN/A
1:50 pm55 °FPartly sunny.25 mph59%29.86 "HgN/A
1:20 pm55 °FPartly sunny.21 mph63%29.86 "HgN/A
12:50 pm55 °FPartly sunny.22 mph67%29.86 "HgN/A
12:20 pm55 °FPartly sunny.24 mph67%29.89 "HgN/A
11:50 am55 °FBroken clouds.17 mph67%29.89 "HgN/A
11:20 am54 °FPartly sunny.18 mph72%29.89 "HgN/A
10:50 am54 °FBroken clouds.22 mph72%29.92 "HgN/A
10:20 am54 °FPartly sunny.18 mph72%29.92 "HgN/A
9:50 am54 °FPartly sunny.17 mph72%29.92 "HgN/A
9:20 am52 °FPartly sunny.15 mph77%29.92 "HgN/A
8:50 am50 °FBroken clouds.12 mph82%29.92 "HgN/A
8:20 am48 °FBroken clouds.13 mph87%29.92 "HgN/A
7:50 am48 °FSprinkles. Broken clouds.12 mph87%29.92 "HgN/A
7:20 am48 °FSprinkles. Broken clouds.9 mph87%29.92 "HgN/A
6:50 am48 °FPartly cloudy.12 mph87%29.92 "HgN/A
6:20 am48 °FLight rain. Partly cloudy.9 mph87%29.92 "HgN/A
5:50 am48 °FSprinkles. Partly cloudy.9 mph87%29.92 "HgN/A
5:20 am48 °FPassing clouds.8 mph94%29.95 "HgN/A
4:50 am46 °FPassing clouds.8 mph93%29.95 "HgN/A
4:20 am46 °FPartly cloudy.7 mph93%29.95 "Hg4 mi
3:50 am46 °FSprinkles. Fog.5 mph93%29.98 "Hg3 mi
3:20 am46 °FSprinkles. Fog.8 mph93%29.98 "Hg3 mi
2:50 am46 °FSprinkles. Partly cloudy.9 mph93%29.98 "Hg5 mi
2:20 am46 °FSprinkles. Partly cloudy.6 mph93%29.98 "Hg3 mi
1:50 am46 °FSprinkles. Partly cloudy.5 mph93%30.01 "HgN/A
1:20 am46 °FSprinkles. Partly cloudy.7 mph93%30.01 "HgN/A
12:50 am46 °FSprinkles. Passing clouds.2 mph93%30.01 "HgN/A
12:20 am46 °FSprinkles. Partly cloudy.3 mph93%30.01 "Hg3 mi
11:50 pm
Tue, Feb 21
46 °FSprinkles. Partly cloudy.6 mph93%30.01 "Hg4 mi
11:20 pm46 °FPassing clouds.3 mph93%30.01 "HgN/A
10:50 pm46 °FSprinkles. Partly cloudy.3 mph93%30.01 "HgN/A
10:20 pm46 °FSprinkles. Partly cloudy.7 mph93%30.01 "HgN/A
9:50 pm46 °FSprinkles. Passing clouds.7 mph93%30.01 "HgN/A
9:20 pm46 °FSprinkles. Partly cloudy.10 mph87%30.01 "HgN/A
8:50 pm46 °FPartly cloudy.13 mph87%30.01 "HgN/A
8:20 pm46 °FPartly cloudy.10 mph87%30.01 "HgN/A
7:50 pm46 °FPartly cloudy.13 mph87%30.01 "HgN/A
7:20 pm46 °FPartly cloudy.14 mph87%30.01 "HgN/A
6:50 pm46 °FLight rain. Partly cloudy.15 mph87%30.01 "HgN/A
6:20 pm46 °FPassing clouds.16 mph87%29.98 "HgN/A
Weather by CustomWeather, © 2017

See weather overviewHow to use our weather pages